owner,sensor,date,latitude,longitude,vertical_datum,direction_of_sea_water_velocity,sea_water_speed,upward_sea_water_velocity,qcFlag 
TABS,ioos:station:wmo:42050:1,2009-01-01T00:00:00Z,28.8425,-94.2433,2.0,277.2557859,14.17348581,-99999.0,'11111222,11111222,99999999' 
TABS,ioos:station:wmo:42050:1,2009-01-01T00:30:00Z,28.8425,-94.2433,2.0,268.9487863,13.63229254,-99999.0,'11111222,11111222,99999999' 
TABS,ioos:station:wmo:42050:1,2009-01-01T01:00:00Z,28.8425,-94.2433,2.0,266.8766464,12.84908168,-99999.0,'11111222,11111222,99999999' 
TABS,ioos:station:wmo:42050:1,2009-01-01T01:30:00Z,28.8425,-94.2433,2.0,256.455869,14.39017026,-99999.0,'11111222,11111222,99999999' 
TABS,ioos:station:wmo:42050:1,2009-01-01T02:00:00Z,28.8425,-94.2433,2.0,255.6406088,13.34694722,-99999.0,'11111222,11111222,99999999' 
TABS,ioos:station:wmo:42050:1,2009-01-01T02:30:00Z,28.8425,-94.2433,2.0,252.8314468,14.16097807,-99999.0,'11111222,11111222,99999999' 
TABS,ioos:station:wmo:42050:1,2009-01-01T03:00:00Z,28.8425,-94.2433,2.0,258.4064763,15.07759265,-99999.0,'11111222,11111222,99999999' 
TABS,ioos:station:wmo:42050:1,2009-01-01T03:30:00Z,28.8425,-94.2433,2.0,254.1540477,14.97919223,-99999.0,'11111222,11111222,99999999' 
TABS,ioos:station:wmo:42050:1,2009-01-01T04:00:00Z,28.8425,-94.2433,2.0,239.542544,13.77015977,-99999.0,'11111222,11111222,99999999' 
TABS,ioos:station:wmo:42050:1,2009-01-01T04:30:00Z,28.8425,-94.2433,2.0,251.4276391,11.89968487,-99999.0,'11111222,11111222,99999999' 
TABS,ioos:station:wmo:42050:1,2009-01-01T05:00:00Z,28.8425,-94.2433,2.0,262.8054096,15.411327,-99999.0,'11111222,11111222,99999999' 
TABS,ioos:station:wmo:42050:1,2009-01-01T05:30:00Z,28.8425,-94.2433,2.0,235.2015749,11.61759442,-99999.0,'11111222,11111222,99999999' 
TABS,ioos:station:wmo:42050:1,2009-01-01T06:00:00Z,28.8425,-94.2433,2.0,238.2439887,12.16041118,-99999.0,'11111222,11111222,99999999' 
TABS,ioos:station:wmo:42050:1,2009-01-01T06:30:00Z,28.8425,-94.2433,2.0,278.3874337,12.61491181,-99999.0,'11111222,11111222,99999999' 
TABS,ioos:station:wmo:42050:1,2009-01-01T07:00:00Z,28.8425,-94.2433,2.0,261.4282328,13.95587332,-99999.0,'11111222,11111222,99999999' 
TABS,ioos:station:wmo:42050:1,2009-01-01T07:30:00Z,28.8425,-94.2433,2.0,283.0251352,11.40337669,-99999.0,'11111222,11111222,99999999' 
TABS,ioos:station:wmo:42050:1,2009-01-01T08:00:00Z,28.8425,-94.2433,2.0,285.747364,13.48614103,-99999.0,'11111222,11111222,99999999' 
TABS,ioos:station:wmo:42050:1,2009-01-01T08:30:00Z,28.8425,-94.2433,2.0,270.6497771,11.47073668,-99999.0,'11111222,11111222,99999999' 
TABS,ioos:station:wmo:42050:1,2009-01-01T09:00:00Z,28.8425,-94.2433,2.0,296.1166814,12.56261517,-99999.0,'11111222,11111222,99999999' 
TABS,ioos:station:wmo:42050:1,2009-01-01T09:30:00Z,28.8425,-94.2433,2.0,287.8954543,10.73957169,-99999.0,'11111222,11111222,99999999' 
TABS,ioos:station:wmo:42050:1,2009-01-01T10:00:00Z,28.8425,-94.2433,2.0,276.4637006,14.3914697,-99999.0,'11111222,11111222,99999999' 
TABS,ioos:station:wmo:42050:1,2009-01-01T10:30:00Z,28.8425,-94.2433,2.0,272.6531483,10.37111373,-99999.0,'11111222,11111222,99999999' 
TABS,ioos:station:wmo:42050:1,2009-01-01T11:00:00Z,28.8425,-94.2433,2.0,250.2282744,14.10126945,-99999.0,'11111222,11111222,99999999' 
TABS,ioos:station:wmo:42050:1,2009-01-01T11:30:00Z,28.8425,-94.2433,2.0,253.5801107,10.79004171,-99999.0,'11111222,11111222,99999999' 
TABS,ioos:station:wmo:42050:1,2009-01-01T12:00:00Z,28.8425,-94.2433,2.0,249.7300047,12.6429427,-99999.0,'11111222,11111222,99999999' 
TABS,ioos:station:wmo:42050:1,2009-01-01T12:30:00Z,28.8425,-94.2433,2.0,234.2457754,14.17068806,-99999.0,'11111222,11111222,99999999' 
TABS,ioos:station:wmo:42050:1,2009-01-01T13:00:00Z,28.8425,-94.2433,2.0,238.7738833,16.12618058,-99999.0,'11111222,11111222,99999999' 
TABS,ioos:station:wmo:42050:1,2009-01-01T13:30:00Z,28.8425,-94.2433,2.0,235.4099528,18.90096558,-99999.0,'11111222,11111222,99999999' 
TABS,ioos:station:wmo:42050:1,2009-01-01T14:00:00Z,28.8425,-94.2433,2.0,241.7191826,19.12247892,-99999.0,'11111222,11111222,99999999' 
TABS,ioos:station:wmo:42050:1,2009-01-01T14:30:00Z,28.8425,-94.2433,2.0,243.8706416,19.39174309,-99999.0,'11111222,11111222,99999999' 
TABS,ioos:station:wmo:42050:1,2009-01-01T15:00:00Z,28.8425,-94.2433,2.0,242.274485,16.78736727,-99999.0,'11111222,11111222,99999999' 
TABS,ioos:station:wmo:42050:1,2009-01-01T15:30:00Z,28.8425,-94.2433,2.0,255.8311886,15.7697083,-99999.0,'11111222,11111222,99999999' 
TABS,ioos:station:wmo:42050:1,2009-01-01T16:00:00Z,28.8425,-94.2433,2.0,253.7087987,15.72120224,-99999.0,'11111222,11111222,99999999' 
TABS,ioos:station:wmo:42050:1,2009-01-01T16:30:00Z,28.8425,-94.2433,2.0,250.1225108,17.08803675,-99999.0,'11111222,11111222,99999999' 
TABS,ioos:station:wmo:42050:1,2009-01-01T17:00:00Z,28.8425,-94.2433,2.0,253.745827,17.86400011,-99999.0,'11111222,11111222,99999999' 
TABS,ioos:station:wmo:42050:1,2009-01-01T17:30:00Z,28.8425,-94.2433,2.0,266.5313579,16.19966975,-99999.0,'11111222,11111222,99999999' 
TABS,ioos:station:wmo:42050:1,2009-01-01T18:00:00Z,28.8425,-94.2433,2.0,271.9892698,18.44110897,-99999.0,'11111222,11111222,99999999' 
TABS,ioos:station:wmo:42050:1,2009-01-01T18:30:00Z,28.8425,-94.2433,2.0,280.4356086,19.6550884,-99999.0,'11111222,11111222,99999999' 
TABS,ioos:station:wmo:42050:1,2009-01-01T19:00:00Z,28.8425,-94.2433,2.0,284.0444195,17.8433461,-99999.0,'11111222,11111222,99999999' 
TABS,ioos:station:wmo:42050:1,2009-01-01T19:30:00Z,28.8425,-94.2433,2.0,301.2659006,19.20982301,-99999.0,'11111222,11111222,99999999' 
TABS,ioos:station:wmo:42050:1,2009-01-01T20:00:00Z,28.8425,-94.2433,2.0,304.6323228,20.07731307,-99999.0,'11111222,11111222,99999999' 
TABS,ioos:station:wmo:42050:1,2009-01-01T20:30:00Z,28.8425,-94.2433,2.0,310.1089917,20.81524682,-99999.0,'11111222,11111222,99999999' 
TABS,ioos:station:wmo:42050:1,2009-01-01T21:00:00Z,28.8425,-94.2433,2.0,318.5447513,22.18902882,-99999.0,'11111222,11111222,99999999' 
TABS,ioos:station:wmo:42050:1,2009-01-01T21:30:00Z,28.8425,-94.2433,2.0,318.7620162,20.58580336,-99999.0,'11111222,11111222,99999999' 
TABS,ioos:station:wmo:42050:1,2009-01-01T22:00:00Z,28.8425,-94.2433,2.0,323.9020109,19.6037777,-99999.0,'11111222,11111222,99999999' 
TABS,ioos:station:wmo:42050:1,2009-01-01T22:30:00Z,28.8425,-94.2433,2.0,326.2033555,20.81793458,-99999.0,'11111222,11111222,99999999' 
TABS,ioos:station:wmo:42050:1,2009-01-01T23:00:00Z,28.8425,-94.2433,2.0,333.0586947,20.41574148,-99999.0,'11111222,11111222,99999999' 
TABS,ioos:station:wmo:42050:1,2009-01-01T23:30:00Z,28.8425,-94.2433,2.0,329.0474419,18.00392179,-99999.0,'11111222,11111222,99999999' 
TABS,ioos:station:wmo:42050:1,2009-01-02T00:00:00Z,28.8425,-94.2433,2.0,340.3872858,14.15102116,-99999.0,'11111222,11111222,99999999' 
TABS,ioos:station:wmo:42050:1,2009-01-02T00:30:00Z,28.8425,-94.2433,2.0,337.3879467,11.67769241,-99999.0,'11111222,11111222,99999999' 
TABS,ioos:station:wmo:42050:1,2009-01-02T01:00:00Z,28.8425,-94.2433,2.0,340.2958029,11.41862514,-99999.0,'11111222,11111222,99999999' 
TABS,ioos:station:wmo:42050:1,2009-01-02T01:30:00Z,28.8425,-94.2433,2.0,328.3819101,6.904983707,-99999.0,'11133222,11111222,99999999' 
TABS,ioos:station:wmo:42050:1,2009-01-02T02:00:00Z,28.8425,-94.2433,2.0,353.3085309,7.380277773,-99999.0,'11133222,11111222,99999999' 
TABS,ioos:station:wmo:42050:1,2009-01-02T02:30:00Z,28.8425,-94.2433,2.0,356.9125664,4.827007354,-99999.0,'11133222,11111222,99999999' 
TABS,ioos:station:wmo:42050:1,2009-01-02T03:00:00Z,28.8425,-94.2433,2.0,357.2815098,3.58403404,-99999.0,'11133222,11111222,99999999' 
TABS,ioos:station:wmo:42050:1,2009-01-02T03:30:00Z,28.8425,-94.2433,2.0,358.3809768,2.831130516,-99999.0,'11133222,11111222,99999999' 
TABS,ioos:station:wmo:42050:1,2009-01-02T04:00:00Z,28.8425,-94.2433,2.0,39.96274851,2.335401464,-99999.0,'11133222,11111222,99999999' 
TABS,ioos:station:wmo:42050:1,2009-01-02T04:30:00Z,28.8425,-94.2433,2.0,15.1646359,2.217205448,-99999.0,'11133222,11111222,99999999' 
TABS,ioos:station:wmo:42050:1,2009-01-02T05:00:00Z,28.8425,-94.2433,2.0,38.99111332,4.322961948,-99999.0,'11133222,11111222,99999999' 
TABS,ioos:station:wmo:42050:1,2009-01-02T05:30:00Z,28.8425,-94.2433,2.0,58.0326693,4.797551459,-99999.0,'11133222,11111222,99999999' 
TABS,ioos:station:wmo:42050:1,2009-01-02T06:00:00Z,28.8425,-94.2433,2.0,72.87390594,7.19922218,-99999.0,'11133222,11111222,99999999' 
TABS,ioos:station:wmo:42050:1,2009-01-02T06:30:00Z,28.8425,-94.2433,2.0,41.46984091,4.937904414,-99999.0,'11133222,11111222,99999999' 
TABS,ioos:station:wmo:42050:1,2009-01-02T07:00:00Z,28.8425,-94.2433,2.0,45.00010523,7.36805266,-99999.0,'11133222,11111222,99999999' 
TABS,ioos:station:wmo:42050:1,2009-01-02T07:30:00Z,28.8425,-94.2433,2.0,66.95285711,5.466305882,-99999.0,'11133222,11111222,99999999' 
TABS,ioos:station:wmo:42050:1,2009-01-02T08:00:00Z,28.8425,-94.2433,2.0,67.1438152,6.153129285,-99999.0,'11133222,11111222,99999999' 
TABS,ioos:station:wmo:42050:1,2009-01-02T08:30:00Z,28.8425,-94.2433,2.0,55.84038533,1.691892432,-99999.0,'11133222,11111222,99999999' 
TABS,ioos:station:wmo:42050:1,2009-01-02T09:00:00Z,28.8425,-94.2433,2.0,84.87000377,4.026127171,-99999.0,'11133222,11111222,99999999' 
TABS,ioos:station:wmo:42050:1,2009-01-02T09:30:00Z,28.8425,-94.2433,2.0,76.80535978,4.293343685,-99999.0,'11133222,11111222,99999999' 
TABS,ioos:station:wmo:42050:1,2009-01-02T10:00:00Z,28.8425,-94.2433,2.0,85.3836587,3.230479841,-99999.0,'11133222,11111222,99999999' 
TABS,ioos:station:wmo:42050:1,2009-01-02T10:30:00Z,28.8425,-94.2433,2.0,91.076859,2.660469883,-99999.0,'11133222,11111222,99999999' 
TABS,ioos:station:wmo:42050:1,2009-01-02T11:00:00Z,28.8425,-94.2433,2.0,113.2617532,3.570224083,-99999.0,'11133222,11111222,99999999' 
TABS,ioos:station:wmo:42050:1,2009-01-02T11:30:00Z,28.8425,-94.2433,2.0,136.1231949,2.524856432,-99999.0,'11133222,11111222,99999999' 
TABS,ioos:station:wmo:42050:1,2009-01-02T12:00:00Z,28.8425,-94.2433,2.0,132.1637137,3.858458241,-99999.0,'11133222,11111222,99999999' 
TABS,ioos:station:wmo:42050:1,2009-01-02T12:30:00Z,28.8425,-94.2433,2.0,155.6061072,3.777194726,-99999.0,'11133222,11111222,99999999' 
TABS,ioos:station:wmo:42050:1,2009-01-02T13:00:00Z,28.8425,-94.2433,2.0,150.0683477,4.569463864,-99999.0,'11133222,11111222,99999999' 
TABS,ioos:station:wmo:42050:1,2009-01-02T13:30:00Z,28.8425,-94.2433,2.0,169.4372549,6.164454558,-99999.0,'11133222,11111222,99999999' 
TABS,ioos:station:wmo:42050:1,2009-01-02T14:00:00Z,28.8425,-94.2433,2.0,178.3983929,4.651816849,-99999.0,'11133222,11111222,99999999' 
TABS,ioos:station:wmo:42050:1,2009-01-02T14:30:00Z,28.8425,-94.2433,2.0,185.6555541,4.160252396,-99999.0,'11133222,11111222,99999999' 
TABS,ioos:station:wmo:42050:1,2009-01-02T15:00:00Z,28.8425,-94.2433,2.0,191.3353772,4.375351414,-99999.0,'11133222,11111222,99999999' 
TABS,ioos:station:wmo:42050:1,2009-01-02T15:30:00Z,28.8425,-94.2433,2.0,204.7748722,2.147673159,-99999.0,'11133222,11111222,99999999' 
TABS,ioos:station:wmo:42050:1,2009-01-02T16:00:00Z,28.8425,-94.2433,2.0,232.9185682,3.798025803,-99999.0,'11133222,11111222,99999999' 
TABS,ioos:station:wmo:42050:1,2009-01-02T16:30:00Z,28.8425,-94.2433,2.0,250.7689517,3.18788331,-99999.0,'11133222,11111222,99999999' 
TABS,ioos:station:wmo:42050:1,2009-01-02T17:00:00Z,28.8425,-94.2433,2.0,5.356022977,1.607015868,-99999.0,'11133222,11111222,99999999' 
TABS,ioos:station:wmo:42050:1,2009-01-02T17:30:00Z,28.8425,-94.2433,2.0,329.4210551,1.277693234,-99999.0,'11133222,11111222,99999999' 
TABS,ioos:station:wmo:42050:1,2009-01-02T18:00:00Z,28.8425,-94.2433,2.0,336.7160945,3.516390195,-99999.0,'11133222,11111222,99999999' 
TABS,ioos:station:wmo:42050:1,2009-01-02T18:30:00Z,28.8425,-94.2433,2.0,349.270047,4.457947958,-99999.0,'11133222,11111222,99999999' 
TABS,ioos:station:wmo:42050:1,2009-01-02T19:00:00Z,28.8425,-94.2433,2.0,9.175372083,4.264563284,-99999.0,'11133222,11111222,99999999' 
TABS,ioos:station:wmo:42050:1,2009-01-02T19:30:00Z,28.8425,-94.2433,2.0,6.724028313,4.782896612,-99999.0,'11133222,11111222,99999999' 
TABS,ioos:station:wmo:42050:1,2009-01-02T20:00:00Z,28.8425,-94.2433,2.0,25.23404987,5.582732306,-99999.0,'11133222,11111222,99999999' 
TABS,ioos:station:wmo:42050:1,2009-01-02T20:30:00Z,28.8425,-94.2433,2.0,25.37348575,6.020797289,-99999.0,'11133222,11111222,99999999' 
TABS,ioos:station:wmo:42050:1,2009-01-02T21:00:00Z,28.8425,-94.2433,2.0,23.13001947,9.851928745,-99999.0,'11133222,11111222,99999999' 
TABS,ioos:station:wmo:42050:1,2009-01-02T21:30:00Z,28.8425,-94.2433,2.0,22.4776262,9.285413292,-99999.0,'11133222,11111222,99999999' 
TABS,ioos:station:wmo:42050:1,2009-01-02T22:00:00Z,28.8425,-94.2433,2.0,20.57126362,8.908002021,-99999.0,'11133222,11111222,99999999' 
TABS,ioos:station:wmo:42050:1,2009-01-02T22:30:00Z,28.8425,-94.2433,2.0,25.073031,9.273882682,-99999.0,'11133222,11111222,99999999' 
TABS,ioos:station:wmo:42050:1,2009-01-02T23:00:00Z,28.8425,-94.2433,2.0,25.47618534,7.765030586,-99999.0,'11133222,11111222,99999999' 
TABS,ioos:station:wmo:42050:1,2009-01-02T23:30:00Z,28.8425,-94.2433,2.0,26.33463478,11.11334783,-99999.0,'11111222,11111222,99999999' 
TABS,ioos:station:wmo:42050:1,2009-01-03T00:00:00Z,28.8425,-94.2433,2.0,33.92686358,14.10059928,-99999.0,'11111222,11111222,99999999' 
TABS,ioos:station:wmo:42050:1,2009-01-03T00:30:00Z,28.8425,-94.2433,2.0,35.51093858,12.39548708,-99999.0,'11111222,11111222,99999999' 
TABS,ioos:station:wmo:42050:1,2009-01-03T01:00:00Z,28.8425,-94.2433,2.0,37.99770659,12.29638158,-99999.0,'11111222,11111222,99999999' 
TABS,ioos:station:wmo:42050:1,2009-01-03T01:30:00Z,28.8425,-94.2433,2.0,38.41078743,12.57054494,-99999.0,'11111222,11111222,99999999' 
TABS,ioos:station:wmo:42050:1,2009-01-03T02:00:00Z,28.8425,-94.2433,2.0,48.45076909,11.86555098,-99999.0,'11111222,11111222,99999999' 
TABS,ioos:station:wmo:42050:1,2009-01-03T02:30:00Z,28.8425,-94.2433,2.0,40.76835878,9.678393462,-99999.0,'11133222,11111222,99999999' 
TABS,ioos:station:wmo:42050:1,2009-01-03T03:00:00Z,28.8425,-94.2433,2.0,42.88214864,9.566619048,-99999.0,'11133222,11111222,99999999' 
TABS,ioos:station:wmo:42050:1,2009-01-03T03:30:00Z,28.8425,-94.2433,2.0,52.45793895,10.56872745,-99999.0,'11111222,11111222,99999999' 
TABS,ioos:station:wmo:42050:1,2009-01-03T04:00:00Z,28.8425,-94.2433,2.0,53.73679465,13.03473053,-99999.0,'11111222,11111222,99999999' 
TABS,ioos:station:wmo:42050:1,2009-01-03T04:30:00Z,28.8425,-94.2433,2.0,65.28597842,9.830411995,-99999.0,'11133222,11111222,99999999' 
TABS,ioos:station:wmo:42050:1,2009-01-03T05:00:00Z,28.8425,-94.2433,2.0,67.26212232,7.839247413,-99999.0,'11133222,11111222,99999999' 
TABS,ioos:station:wmo:42050:1,2009-01-03T05:30:00Z,28.8425,-94.2433,2.0,73.62260015,8.015216778,-99999.0,'11133222,11111222,99999999' 
TABS,ioos:station:wmo:42050:1,2009-01-03T06:00:00Z,28.8425,-94.2433,2.0,96.12608094,7.683879229,-99999.0,'11133222,11111222,99999999' 
TABS,ioos:station:wmo:42050:1,2009-01-03T06:30:00Z,28.8425,-94.2433,2.0,90.07421712,7.720006477,-99999.0,'11133222,11111222,99999999' 
TABS,ioos:station:wmo:42050:1,2009-01-03T07:00:00Z,28.8425,-94.2433,2.0,80.63763408,5.655333766,-99999.0,'11133222,11111222,99999999' 
TABS,ioos:station:wmo:42050:1,2009-01-03T07:30:00Z,28.8425,-94.2433,2.0,79.55220688,7.168856255,-99999.0,'11133222,11111222,99999999' 
TABS,ioos:station:wmo:42050:1,2009-01-03T08:00:00Z,28.8425,-94.2433,2.0,71.83535476,6.704103221,-99999.0,'11133222,11111222,99999999' 
TABS,ioos:station:wmo:42050:1,2009-01-03T08:30:00Z,28.8425,-94.2433,2.0,60.36027492,6.086394664,-99999.0,'11133222,11111222,99999999' 
TABS,ioos:station:wmo:42050:1,2009-01-03T09:00:00Z,28.8425,-94.2433,2.0,45.10699997,7.580197887,-99999.0,'11133222,11111222,99999999' 
TABS,ioos:station:wmo:42050:1,2009-01-03T09:30:00Z,28.8425,-94.2433,2.0,32.59271572,7.964182318,-99999.0,'11133222,11111222,99999999' 
TABS,ioos:station:wmo:42050:1,2009-01-03T10:00:00Z,28.8425,-94.2433,2.0,50.24809076,9.58612539,-99999.0,'11133222,11111222,99999999' 
TABS,ioos:station:wmo:42050:1,2009-01-03T10:30:00Z,28.8425,-94.2433,2.0,46.02380994,10.68608909,-99999.0,'11111222,11111222,99999999' 
TABS,ioos:station:wmo:42050:1,2009-01-03T11:00:00Z,28.8425,-94.2433,2.0,28.55403273,8.891490314,-99999.0,'11133222,11111222,99999999' 
TABS,ioos:station:wmo:42050:1,2009-01-03T11:30:00Z,28.8425,-94.2433,2.0,44.77491295,12.59366904,-99999.0,'11111222,11111222,99999999' 
TABS,ioos:station:wmo:42050:1,2009-01-03T12:00:00Z,28.8425,-94.2433,2.0,58.29052387,8.827780015,-99999.0,'11133222,11111222,99999999' 
TABS,ioos:station:wmo:42050:1,2009-01-03T12:30:00Z,28.8425,-94.2433,2.0,48.28537402,7.033128749,-99999.0,'11133222,11111222,99999999' 
TABS,ioos:station:wmo:42050:1,2009-01-03T13:00:00Z,28.8425,-94.2433,2.0,45.97608655,8.302638135,-99999.0,'11133222,11111222,99999999' 
TABS,ioos:station:wmo:42050:1,2009-01-03T13:30:00Z,28.8425,-94.2433,2.0,69.79248727,9.81408172,-99999.0,'11133222,11111222,99999999' 
TABS,ioos:station:wmo:42050:1,2009-01-03T14:00:00Z,28.8425,-94.2433,2.0,44.7326205,7.573196155,-99999.0,'11133222,11111222,99999999' 
TABS,ioos:station:wmo:42050:1,2009-01-03T14:30:00Z,28.8425,-94.2433,2.0,75.13012012,6.000966589,-99999.0,'11133222,11111222,99999999' 
TABS,ioos:station:wmo:42050:1,2009-01-03T15:00:00Z,28.8425,-94.2433,2.0,49.08571246,1.984943324,-99999.0,'11133222,11111222,99999999' 
TABS,ioos:station:wmo:42050:1,2009-01-03T15:30:00Z,28.8425,-94.2433,2.0,65.21170647,9.08727682,-99999.0,'11133222,11111222,99999999' 
TABS,ioos:station:wmo:42050:1,2009-01-03T16:00:00Z,28.8425,-94.2433,2.0,58.23674186,6.021901693,-99999.0,'11133222,11111222,99999999' 
TABS,ioos:station:wmo:42050:1,2009-01-03T16:30:00Z,28.8425,-94.2433,2.0,143.4984338,1.244025723,-99999.0,'11133222,11111222,99999999' 
TABS,ioos:station:wmo:42050:1,2009-01-03T17:00:00Z,28.8425,-94.2433,2.0,43.03614921,7.634166621,-99999.0,'11133222,11111222,99999999' 
TABS,ioos:station:wmo:42050:1,2009-01-03T17:30:00Z,28.8425,-94.2433,2.0,62.6165574,3.13081459,-99999.0,'11133222,11111222,99999999' 
TABS,ioos:station:wmo:42050:1,2009-01-03T18:00:00Z,28.8425,-94.2433,2.0,37.25770018,5.61612856,-99999.0,'11133222,11111222,99999999' 
TABS,ioos:station:wmo:42050:1,2009-01-03T18:30:00Z,28.8425,-94.2433,2.0,43.98454322,6.782219401,-99999.0,'11133222,11111222,99999999' 
TABS,ioos:station:wmo:42050:1,2009-01-03T19:00:00Z,28.8425,-94.2433,2.0,40.37886463,6.143516908,-99999.0,'11133222,11111222,99999999' 
TABS,ioos:station:wmo:42050:1,2009-01-03T19:30:00Z,28.8425,-94.2433,2.0,40.10713935,7.544037381,-99999.0,'11133222,11111222,99999999' 
TABS,ioos:station:wmo:42050:1,2009-01-03T20:00:00Z,28.8425,-94.2433,2.0,48.05797817,7.555587337,-99999.0,'11133222,11111222,99999999' 
TABS,ioos:station:wmo:42050:1,2009-01-03T20:30:00Z,28.8425,-94.2433,2.0,58.25118585,8.760970266,-99999.0,'11133222,11111222,99999999' 
TABS,ioos:station:wmo:42050:1,2009-01-03T21:00:00Z,28.8425,-94.2433,2.0,45.84859429,10.98257256,-99999.0,'11111222,11111222,99999999' 
TABS,ioos:station:wmo:42050:1,2009-01-03T21:30:00Z,28.8425,-94.2433,2.0,42.63504603,11.30919979,-99999.0,'11111222,11111222,99999999' 
TABS,ioos:station:wmo:42050:1,2009-01-03T22:00:00Z,28.8425,-94.2433,2.0,37.18482996,9.828148351,-99999.0,'11133222,11111222,99999999' 
TABS,ioos:station:wmo:42050:1,2009-01-03T22:30:00Z,28.8425,-94.2433,2.0,57.21270408,10.56280266,-99999.0,'11111222,11111222,99999999' 
TABS,ioos:station:wmo:42050:1,2009-01-03T23:00:00Z,28.8425,-94.2433,2.0,56.82605806,12.31761746,-99999.0,'11111222,11111222,99999999' 
TABS,ioos:station:wmo:42050:1,2009-01-03T23:30:00Z,28.8425,-94.2433,2.0,68.56292947,12.55882956,-99999.0,'11111222,11111222,99999999' 
TABS,ioos:station:wmo:42050:1,2009-01-04T00:00:00Z,28.8425,-94.2433,2.0,62.83619808,11.98150658,-99999.0,'11111222,11111222,99999999' 
TABS,ioos:station:wmo:42050:1,2009-01-04T00:30:00Z,28.8425,-94.2433,2.0,76.51724185,12.05215748,-99999.0,'11111222,11111222,99999999' 
TABS,ioos:station:wmo:42050:1,2009-01-04T01:00:00Z,28.8425,-94.2433,2.0,80.59347837,8.443535989,-99999.0,'11133222,11111222,99999999' 
TABS,ioos:station:wmo:42050:1,2009-01-04T01:30:00Z,28.8425,-94.2433,2.0,99.37281566,7.368371598,-99999.0,'11133222,11111222,99999999' 
TABS,ioos:station:wmo:42050:1,2009-01-04T02:00:00Z,28.8425,-94.2433,2.0,91.66957973,8.923788433,-99999.0,'11133222,11111222,99999999' 
TABS,ioos:station:wmo:42050:1,2009-01-04T02:30:00Z,28.8425,-94.2433,2.0,105.4320625,7.66640072,-99999.0,'11133222,11111222,99999999' 
TABS,ioos:station:wmo:42050:1,2009-01-04T03:00:00Z,28.8425,-94.2433,2.0,134.8515889,8.195395048,-99999.0,'11133222,11111222,99999999' 
TABS,ioos:station:wmo:42050:1,2009-01-04T03:30:00Z,28.8425,-94.2433,2.0,157.8388096,7.396391012,-99999.0,'11133222,11111222,99999999' 
TABS,ioos:station:wmo:42050:1,2009-01-04T04:00:00Z,28.8425,-94.2433,2.0,169.8663543,6.87728144,-99999.0,'11133222,11111222,99999999' 
TABS,ioos:station:wmo:42050:1,2009-01-04T04:30:00Z,28.8425,-94.2433,2.0,161.5422998,8.022699047,-99999.0,'11133222,11111222,99999999' 
TABS,ioos:station:wmo:42050:1,2009-01-04T05:00:00Z,28.8425,-94.2433,2.0,168.7862866,10.49026692,-99999.0,'11111222,11111222,99999999' 
TABS,ioos:station:wmo:42050:1,2009-01-04T05:30:00Z,28.8425,-94.2433,2.0,190.5504929,10.21266371,-99999.0,'11111222,11111222,99999999' 
TABS,ioos:station:wmo:42050:1,2009-01-04T06:00:00Z,28.8425,-94.2433,2.0,208.0620255,9.92705898,-99999.0,'11133222,11111222,99999999' 
TABS,ioos:station:wmo:42050:1,2009-01-04T06:30:00Z,28.8425,-94.2433,2.0,211.6471148,10.3489613,-99999.0,'11111222,11111222,99999999' 
TABS,ioos:station:wmo:42050:1,2009-01-04T07:00:00Z,28.8425,-94.2433,2.0,210.5387623,9.485847353,-99999.0,'11133222,11111222,99999999' 
TABS,ioos:station:wmo:42050:1,2009-01-04T07:30:00Z,28.8425,-94.2433,2.0,219.4313555,10.20219584,-99999.0,'11111222,11111222,99999999' 
TABS,ioos:station:wmo:42050:1,2009-01-04T08:00:00Z,28.8425,-94.2433,2.0,226.2874768,9.753466051,-99999.0,'11133222,11111222,99999999' 
TABS,ioos:station:wmo:42050:1,2009-01-04T08:30:00Z,28.8425,-94.2433,2.0,220.9429559,7.996199097,-99999.0,'11133222,11111222,99999999' 
TABS,ioos:station:wmo:42050:1,2009-01-04T09:00:00Z,28.8425,-94.2433,2.0,248.5540896,8.670282579,-99999.0,'11133222,11111222,99999999' 
TABS,ioos:station:wmo:42050:1,2009-01-04T09:30:00Z,28.8425,-94.2433,2.0,252.6894941,4.671584314,-99999.0,'11133222,11111222,99999999' 
TABS,ioos:station:wmo:42050:1,2009-01-04T10:00:00Z,28.8425,-94.2433,2.0,275.3028661,7.682877065,-99999.0,'11133222,11111222,99999999' 
TABS,ioos:station:wmo:42050:1,2009-01-04T10:30:00Z,28.8425,-94.2433,2.0,279.8845218,9.379216385,-99999.0,'11133222,11111222,99999999' 
TABS,ioos:station:wmo:42050:1,2009-01-04T11:00:00Z,28.8425,-94.2433,2.0,292.541553,10.64308696,-99999.0,'11111222,11111222,99999999' 
TABS,ioos:station:wmo:42050:1,2009-01-04T11:30:00Z,28.8425,-94.2433,2.0,306.4965984,8.894189114,-99999.0,'11133222,11111222,99999999' 
TABS,ioos:station:wmo:42050:1,2009-01-04T12:00:00Z,28.8425,-94.2433,2.0,313.5901289,10.63103476,-99999.0,'11111222,11111222,99999999' 
TABS,ioos:station:wmo:42050:1,2009-01-04T12:30:00Z,28.8425,-94.2433,2.0,327.6070473,11.27439577,-99999.0,'11111222,11111222,99999999' 
TABS,ioos:station:wmo:42050:1,2009-01-04T13:00:00Z,28.8425,-94.2433,2.0,310.7120699,11.25328841,-99999.0,'11111222,11111222,99999999' 
TABS,ioos:station:wmo:42050:1,2009-01-04T13:30:00Z,28.8425,-94.2433,2.0,333.1247437,10.72881168,-99999.0,'11111222,11111222,99999999' 
TABS,ioos:station:wmo:42050:1,2009-01-04T14:00:00Z,28.8425,-94.2433,2.0,323.623228,9.998369867,-99999.0,'11133222,11111222,99999999' 
TABS,ioos:station:wmo:42050:1,2009-01-04T14:30:00Z,28.8425,-94.2433,2.0,329.0365263,10.78726101,-99999.0,'11111222,11111222,99999999' 
TABS,ioos:station:wmo:42050:1,2009-01-04T15:00:00Z,28.8425,-94.2433,2.0,351.2447295,9.328708378,-99999.0,'11133222,11111222,99999999' 
TABS,ioos:station:wmo:42050:1,2009-01-04T15:30:00Z,28.8425,-94.2433,2.0,341.4361638,8.418004514,-99999.0,'11133222,11111222,99999999' 
TABS,ioos:station:wmo:42050:1,2009-01-04T16:00:00Z,28.8425,-94.2433,2.0,334.6910349,9.59056307,-99999.0,'11133222,11111222,99999999' 